Purpose,UTC,SCLOCK,Start_Ephemeris_s,End_Ephemeris_s,Spin_Counter,Sector,Start_Sector_Sclock_major,Subsector,Microsectors_Covered,Spin_Period_s,Staring,Sensor_Bitrate,Start,Stop,Year,Ave_doy,Radial_Distance,Latitude,Local_Time,MPQ_0.476,MPQ_0.500,MPQ_0.525,MPQ_0.552,MPQ_0.579,MPQ_0.608,MPQ_0.639,MPQ_0.670,MPQ_0.704,MPQ_0.739,MPQ_0.776,MPQ_0.815,MPQ_0.856,MPQ_0.898,MPQ_0.943,MPQ_0.991,MPQ_1.040,MPQ_1.092,MPQ_1.147,MPQ_1.204,MPQ_1.264,MPQ_1.327,MPQ_1.394,MPQ_1.464,MPQ_1.537,MPQ_1.614,MPQ_1.694,MPQ_1.779,MPQ_1.868,MPQ_1.961,MPQ_2.059,MPQ_2.162,MPQ_2.270,MPQ_2.384,MPQ_2.503,MPQ_2.628,MPQ_2.760,MPQ_2.898,MPQ_3.043,MPQ_3.195,MPQ_3.355,MPQ_3.522,MPQ_3.698,MPQ_3.883,MPQ_4.077,MPQ_4.281,MPQ_4.495,MPQ_4.720,MPQ_4.956,MPQ_5.204,MPQ_5.464,MPQ_5.737,MPQ_6.024,MPQ_6.325,MPQ_6.642,MPQ_6.974,MPQ_7.322,MPQ_7.689,MPQ_8.073,MPQ_8.477,MPQ_8.901,MPQ_9.346,MPQ_9.813,MPQ_10.303,MPQ_10.819,MPQ_11.360,MPQ_11.928,MPQ_12.524,MPQ_13.150,MPQ_13.808,MPQ_14.498,MPQ_15.223,MPQ_15.984,MPQ_16.783,MPQ_17.622,MPQ_18.504,MPQ_19.429,MPQ_20.400,MPQ_21.420,MPQ_22.491,MPQ_23.616,MPQ_24.796,MPQ_26.036,MPQ_27.338,MPQ_28.705,MPQ_30.140,MPQ_31.647,MPQ_33.230,MPQ_34.891,MPQ_36.636,MPQ_38.467,MPQ_40.391,MPQ_42.410,MPQ_44.531,MPQ_46.757,MPQ_49.095,MPQ_51.550,MPQ_54.128,MPQ_56.834,MPQ_59.676,MPQ_62.659,MPQ_65.792,MPQ_69.082,MPQ_72.536,MPQ_76.163,MPQ_79.971,MPQ_83.970,MPQ_88.168,MPQ_92.577,MPQ_97.205
valid_min,,,,,,,,,,,,,,,,,,,,,,,,,,,,,,,,,,,,,,,,,,,,,,,,,,,,,,,,,,,,,,,,,,,,,,,,,,,,,,,,,,,,,,,,,,,,,,,,,,,,,,,,,,,,,,,,,,,,,,,,,,,,,,,,,,
valid_max,,,,,,,,,,,,,,,,,,,,,,,,,,,,,,,,,,,,,,,,,,,,,,,,,,,,,,,,,,,,,,,,,,,,,,,,,,,,,,,,,,,,,,,,,,,,,,,,,,,,,,,,,,,,,,,,,,,,,,,,,,,,,,,,,,
min,,,,,,,,,,,,,,,,,,,,,,,,,,,,,,,,,,,,,,,,,,,,,,,,,,,,,,,,,,,,,,,,,,,,,,,,,,,,,,,,,,,,,,,,,,,,,,,,,,,,,,,,,,,,,,,,,,,,,,,,,,,,,,,,,,
max,,,,,,,,,,,,,,,,,,,,,,,,,,,,,,,,,,,,,,,,,,,,,,,,,,,,,,,,,,,,,,,,,,,,,,,,,,,,,,,,,,,,,,,,,,,,,,,,,,,,,,,,,,,,,,,,,,,,,,,,,,,,,,,,,,
mean,,,,,,,,,,,,,,,,,,,,,,,,,,,,,,,,,,,,,,,,,,,,,,,,,,,,,,,,,,,,,,,,,,,,,,,,,,,,,,,,,,,,,,,,,,,,,,,,,,,,,,,,,,,,,,,,,,,,,,,,,,,,,,,,,,
stdev,,,,,,,,,,,,,,,,,,,,,,,,,,,,,,,,,,,,,,,,,,,,,,,,,,,,,,,,,,,,,,,,,,,,,,,,,,,,,,,,,,,,,,,,,,,,,,,,,,,,,,,,,,,,,,,,,,,,,,,,,,,,,,,,,,
"sci",2015-340T00:30,"1/1828056827:26",5.026320681831915E+08,5.026356681831926E+08,-1,-1,-1,-1,-1,-1,-1,-1,2015-340T00:00,2015-340T01:00,2015,340.0208,12.413,0.959,7.107,0,0,0,0,0,0,0,2,7,13,24,61,196,437,545,640,537,164,89,56,30,19,14,10,18,14,26,71,106,127,147,185,89,34,15,16,11,6,6,8,8,15,14,28,29,9,4,3,3,5,4,1,2,4,4,1,2,3,18,12,12,4,1,4,3,5,15,8,11,5,30,97,230,203,156,134,73,42,28,21,14,12,8,9,11,10,6,13,15,12,4,3,1,0,3,0,6,7,2,2,0,1,1,4,1,0,0,0,0,0
"sci",2015-340T01:30,"1/1828060427:32",5.026356681831926E+08,5.026392681831936E+08,-1,-1,-1,-1,-1,-1,-1,-1,2015-340T01:00,2015-340T02:00,2015,340.0625,12.003,0.979,7.190,0,0,0,0,0,0,0,1,10,17,42,81,184,436,467,626,486,170,52,48,20,29,18,18,14,33,25,56,108,154,227,180,102,48,24,11,11,11,14,6,4,9,18,20,35,27,5,5,5,2,9,3,4,7,3,6,2,4,15,17,11,4,5,7,1,3,9,8,11,18,23,86,218,203,148,162,51,47,25,18,21,12,9,3,6,10,12,17,10,3,6,1,1,2,3,1,4,3,1,1,1,2,0,0,2,0,0,0,0,0
"sci",2015-340T02:30,"1/1828064027:38",5.026392681831936E+08,5.026428681831947E+08,-1,-1,-1,-1,-1,-1,-1,-1,2015-340T02:00,2015-340T03:00,2015,340.1042,11.583,1.000,7.279,0,0,0,0,0,0,0,1,17,23,43,71,178,358,435,568,425,158,70,49,28,20,23,13,30,23,33,54,117,164,165,193,110,37,23,10,11,11,8,3,7,15,14,30,32,17,4,2,4,2,2,5,3,3,1,4,4,8,9,22,11,6,7,3,6,5,9,13,8,10,30,91,228,190,184,134,57,44,23,18,13,12,9,13,8,2,8,10,15,4,3,5,3,4,1,4,2,2,1,0,1,1,2,1,1,0,0,0,0,0
"sci",2015-340T03:30,"1/1828067627:44",5.026428681831947E+08,5.026464681831957E+08,-1,-1,-1,-1,-1,-1,-1,-1,2015-340T03:00,2015-340T04:00,2015,340.1458,11.153,1.023,7.375,0,0,0,0,0,0,0,1,8,25,32,77,257,727,783,953,675,226,105,54,30,30,27,15,22,21,27,39,113,158,231,225,99,41,17,12,10,12,8,7,5,16,15,30,38,14,5,4,3,4,5,2,1,0,3,3,4,1,6,22,8,9,4,5,7,6,6,11,12,12,27,109,210,204,124,127,58,48,34,18,24,13,10,10,2,9,8,16,10,4,6,5,3,4,4,1,1,2,1,4,0,2,2,2,2,0,0,0,0,0
"sci",2015-340T04:30,"1/1828071227:50",5.026464681831957E+08,5.026500681831968E+08,-1,-1,-1,-1,-1,-1,-1,-1,2015-340T04:00,2015-340T05:00,2015,340.1875,10.713,1.046,7.478,0,0,0,0,0,0,0,0,17,25,39,64,140,357,404,508,388,151,61,25,18,20,16,14,13,22,18,47,80,139,175,238,104,47,37,15,13,13,11,6,6,7,15,25,19,12,6,3,7,6,6,6,1,0,3,4,4,5,10,20,10,6,8,5,4,5,11,4,7,15,37,68,227,172,158,99,58,41,28,20,20,8,10,3,9,6,9,4,7,3,2,6,2,2,1,3,0,2,4,1,2,0,1,2,0,0,0,0,0,0
"sci",2015-340T05:30,"1/1828074827:56",5.026500681831968E+08,5.026536681831979E+08,-1,-1,-1,-1,-1,-1,-1,-1,2015-340T05:00,2015-340T06:00,2015,340.2292,10.262,1.071,7.591,0,0,0,0,0,0,0,1,8,15,37,89,217,749,818,1089,865,286,124,61,34,42,32,31,19,17,15,20,46,92,171,208,139,48,28,14,9,10,11,3,9,12,13,20,28,13,3,4,5,8,3,8,6,6,7,5,3,5,21,25,19,7,15,9,4,5,12,12,12,20,49,122,280,253,176,149,93,70,28,32,24,19,22,9,13,10,10,12,11,13,2,11,6,7,5,1,3,3,5,1,3,2,0,2,1,0,0,0,0,0
"sci",2015-340T06:30,"1/1828078427:62",5.026536681831979E+08,5.026572681831989E+08,-1,-1,-1,-1,-1,-1,-1,-1,2015-340T06:00,2015-340T07:00,2015,340.2708,9.799,1.097,7.715,0,0,0,0,0,0,0,0,4,14,30,62,174,514,776,1057,831,333,109,72,54,29,22,19,16,28,21,31,15,49,93,135,82,43,17,11,9,5,7,6,4,15,7,19,14,19,6,2,0,3,8,6,2,1,4,2,4,6,20,30,17,11,2,8,4,4,8,5,13,23,44,101,220,181,130,103,65,43,23,15,16,12,13,12,8,10,13,10,8,9,3,4,2,2,3,1,3,1,1,1,1,1,1,1,1,0,0,0,0,0
"sci",2015-340T07:30,"1/1828082027:67",5.026572681831989E+08,5.026608681831999E+08,-1,-1,-1,-1,-1,-1,-1,-1,2015-340T07:00,2015-340T08:00,2015,340.3125,9.324,1.124,7.850,0,0,0,0,0,0,0,0,5,15,29,68,180,487,675,872,693,234,103,58,33,21,26,10,12,12,12,28,14,39,61,95,59,26,11,8,4,15,6,7,5,9,8,11,12,13,12,1,3,4,3,1,4,3,2,3,4,6,22,29,13,10,5,5,4,10,10,5,9,30,36,91,235,163,115,88,54,46,19,18,16,9,16,6,9,8,10,7,9,5,3,4,0,2,5,3,1,1,3,2,2,4,1,3,0,0,0,0,0,0
"sci",2015-340T08:30,"1/1828085627:73",5.026608681831999E+08,5.026644681832010E+08,-1,-1,-1,-1,-1,-1,-1,-1,2015-340T08:00,2015-340T09:00,2015,340.3542,8.837,1.152,8.001,0,0,0,0,0,0,0,0,7,10,29,64,187,557,624,794,653,207,101,46,23,19,27,15,23,11,20,23,27,43,42,73,57,28,20,11,4,2,1,5,6,15,16,12,18,9,4,4,5,3,5,1,4,2,6,1,7,10,22,16,13,15,7,9,3,6,11,12,9,22,28,109,217,188,141,112,56,33,28,24,12,11,7,7,7,8,6,5,10,8,3,1,3,2,4,1,2,0,0,4,2,3,1,0,0,0,0,0,0,0
"sci",2015-340T09:30,"1/1828089227:79",5.026644681832010E+08,5.026680681832020E+08,-1,-1,-1,-1,-1,-1,-1,-1,2015-340T09:00,2015-340T10:00,2015,340.3958,8.335,1.182,8.169,0,0,0,0,0,0,0,2,5,8,25,47,150,515,538,780,627,225,92,59,25,22,21,17,18,13,13,14,14,27,55,76,42,24,11,8,8,9,8,6,3,6,7,9,12,11,11,3,3,3,4,9,1,0,5,4,1,6,19,20,14,8,6,10,3,3,10,8,10,13,30,71,162,149,110,101,49,30,23,28,19,15,5,8,8,7,8,7,5,3,1,7,3,2,1,3,0,1,1,0,3,1,2,0,2,0,0,0,0,0
"sci",2015-340T10:30,"1/1828092827:85",5.026680681832020E+08,5.026716681832031E+08,-1,-1,-1,-1,-1,-1,-1,-1,2015-340T10:00,2015-340T11:00,2015,340.4375,7.820,1.213,8.359,0,0,0,0,0,0,0,0,1,4,16,24,92,297,339,473,424,146,66,46,13,22,22,7,6,7,9,11,16,19,38,59,27,18,8,4,6,4,1,1,4,3,2,7,7,8,2,1,2,2,4,2,2,1,5,4,1,7,14,10,4,8,5,5,4,10,1,7,9,16,26,50,99,116,79,59,47,36,20,14,7,9,3,7,8,6,4,4,9,2,4,4,4,2,1,0,1,3,0,3,1,0,1,4,2,0,0,0,0,0
"sci",2015-340T11:30,"1/1828096427:91",5.026716681832031E+08,5.026752681832042E+08,-1,-1,-1,-1,-1,-1,-1,-1,2015-340T11:00,2015-340T12:00,2015,340.4792,7.290,1.244,8.577,0,0,0,0,0,0,0,0,3,3,14,13,32,106,167,215,199,88,32,16,6,5,10,5,6,8,7,7,7,5,19,20,19,11,4,3,4,3,3,1,3,2,6,3,5,7,4,3,0,2,1,2,0,0,1,1,1,4,3,6,8,3,5,6,2,4,4,5,4,9,19,22,45,36,41,35,25,21,13,12,5,4,6,7,6,4,2,2,0,5,3,4,3,2,3,1,0,0,1,0,3,0,0,3,2,0,0,0,0,0
"sci",2015-340T12:30,"1/1828100027:97",5.026752681832042E+08,5.026788681832052E+08,-1,-1,-1,-1,-1,-1,-1,-1,2015-340T12:00,2015-340T13:00,2015,340.5208,6.745,1.275,8.829,0,0,0,0,0,0,0,0,4,1,4,4,6,34,42,61,50,27,12,9,3,5,3,1,6,4,1,5,4,4,9,8,10,4,2,2,1,2,0,4,1,3,0,1,1,2,0,2,1,2,1,2,1,2,0,1,2,2,1,6,4,3,3,3,0,0,3,2,3,7,6,14,17,14,17,16,5,6,4,3,0,4,5,2,0,2,2,1,1,0,0,0,3,1,1,1,2,1,2,1,1,1,0,1,1,0,0,0,0,0
"sci",2015-340T13:30,"1/1828103627:103",5.026788681832052E+08,5.026824681832063E+08,-1,-1,-1,-1,-1,-1,-1,-1,2015-340T13:00,2015-340T14:00,2015,340.5625,6.185,1.305,9.126,0,0,0,0,0,0,0,1,2,2,4,2,2,6,4,5,7,5,2,4,3,3,1,0,3,0,6,1,0,2,4,4,4,2,2,0,3,3,1,2,3,1,2,2,1,1,0,0,1,4,1,2,3,1,1,3,4,2,1,5,1,4,4,5,4,2,1,3,0,2,4,1,4,3,1,2,3,1,1,1,2,2,1,1,2,0,0,1,1,1,0,3,0,1,1,3,3,1,0,0,0,1,1,0,0,0,0,0,0,0
"sci",2015-340T14:30,"1/1828107227:109",5.026824681832063E+08,5.026860681832073E+08,-1,-1,-1,-1,-1,-1,-1,-1,2015-340T14:00,2015-340T15:00,2015,340.6042,5.611,1.331,9.483,0,0,0,0,0,0,0,0,3,1,4,3,1,7,3,6,4,1,1,3,4,3,2,2,4,2,1,3,2,3,5,3,4,2,5,5,4,1,2,4,3,1,2,1,3,7,8,1,0,3,1,2,4,7,10,6,8,3,4,5,3,8,7,7,1,1,0,4,4,2,3,0,7,3,4,2,5,2,6,5,4,6,2,1,6,5,6,5,5,3,3,4,7,3,2,2,1,2,5,1,2,4,3,2,1,0,0,0,0,0
"sci",2015-340T15:30,"1/1828110827:114",5.026860681832073E+08,5.026896681832084E+08,-1,-1,-1,-1,-1,-1,-1,-1,2015-340T15:00,2015-340T16:00,2015,340.6458,5.025,1.346,9.923,0,0,0,0,0,0,0,0,3,8,4,3,0,7,5,4,7,3,2,5,5,3,3,4,3,5,1,6,2,3,3,2,5,5,2,8,2,4,4,3,4,4,5,3,6,6,3,5,3,7,3,6,3,4,4,5,5,4,4,5,5,9,9,6,3,4,5,5,4,2,2,3,3,5,7,2,4,1,4,4,2,4,3,6,4,2,6,3,2,2,0,3,0,1,2,4,1,6,2,3,4,6,6,4,1,0,0,0,0,0
"sci",2015-340T16:30,"1/1828114427:120",5.026896681832084E+08,5.026932681832095E+08,-1,-1,-1,-1,-1,-1,-1,-1,2015-340T16:00,2015-340T17:00,2015,340.6875,4.435,1.340,10.479,0,0,0,0,0,0,0,0,1,3,7,4,3,4,4,4,6,4,6,9,2,2,9,5,4,4,1,6,5,3,7,1,1,4,0,5,4,3,2,5,3,2,1,3,4,4,2,2,0,1,1,4,3,3,4,3,1,4,1,2,3,6,4,3,2,1,6,3,1,4,1,0,3,4,3,1,4,5,3,5,3,1,1,3,1,4,1,4,3,1,2,2,2,5,1,0,2,1,1,5,1,5,4,0,2,0,0,0,0,0
"sci",2015-340T17:30,"1/1828118027:126",5.026932681832095E+08,5.026968681832105E+08,-1,-1,-1,-1,-1,-1,-1,-1,2015-340T17:00,2015-340T18:00,2015,340.7292,3.852,1.289,11.206,0,0,0,0,0,0,0,4,106,113,103,103,77,79,104,95,93,100,84,92,128,98,103,113,97,97,98,63,72,103,73,66,71,59,72,58,44,45,55,33,37,52,47,59,46,46,45,48,45,51,59,56,58,68,50,70,60,70,75,69,71,82,57,103,82,39,40,41,61,39,58,51,59,34,48,55,34,41,54,38,51,56,41,50,41,45,45,36,45,59,53,54,48,33,48,42,41,41,53,45,40,42,28,38,33,0,0,0,0,0
"sci",2015-340T18:30,"1/1828121627:132",5.026968681832105E+08,5.027004681832116E+08,-1,-1,-1,-1,-1,-1,-1,-1,2015-340T18:00,2015-340T19:00,2015,340.7708,3.304,1.148,12.182,0,0,0,0,0,0,0,4,110,118,131,122,83,85,132,107,117,125,100,108,143,114,118,141,126,75,75,53,62,78,75,54,72,59,54,63,55,58,61,51,45,70,54,69,62,54,73,60,71,71,87,50,68,82,74,79,81,85,101,112,108,114,118,134,95,52,54,68,55,65,50,42,51,62,59,59,57,56,56,47,58,66,44,50,59,57,60,49,47,67,70,50,58,43,48,62,58,52,60,59,47,51,59,51,60,3,0,0,0,0
"sci",2015-340T19:30,"1/1828125227:138",5.027004681832116E+08,5.027040681832126E+08,-1,-1,-1,-1,-1,-1,-1,-1,2015-340T19:00,2015-340T20:00,2015,340.8125,2.846,0.839,13.510,0,0,0,0,0,0,0,5,123,126,151,148,117,142,173,120,132,163,149,124,145,162,115,181,190,69,78,63,48,72,76,78,78,55,71,67,65,53,63,65,47,55,59,39,68,55,66,60,53,71,67,65,79,73,58,63,58,76,66,76,76,87,114,140,77,58,40,51,59,54,41,49,43,39,36,41,42,32,48,43,39,34,34,49,46,35,28,41,30,31,50,36,38,29,27,33,44,34,42,36,35,25,39,36,32,3,0,0,0,0
"sci",2015-340T20:30,"1/1828128827:144",5.027040681832126E+08,5.027076681832137E+08,-1,-1,-1,-1,-1,-1,-1,-1,2015-340T20:00,2015-340T21:00,2015,340.8542,2.568,0.295,15.230,0,0,0,0,0,0,0,11,99,117,137,123,108,136,123,132,141,139,135,137,145,175,143,177,139,44,43,38,51,50,64,54,48,56,50,39,48,45,45,45,54,41,61,49,58,57,60,54,53,55,76,53,66,66,72,82,73,69,66,84,95,100,105,109,55,50,47,42,56,53,46,27,33,42,54,42,49,38,39,50,40,37,46,43,52,34,41,40,43,50,38,42,44,43,45,41,41,39,44,40,30,32,56,43,49,2,0,0,0,0
"sci",2015-340T21:30,"1/1828132427:150",5.027076681832137E+08,5.027112681832148E+08,-1,-1,-1,-1,-1,-1,-1,-1,2015-340T21:00,2015-340T22:00,2015,340.8958,2.563,-0.375,17.148,0,0,0,0,0,0,0,12,92,131,118,107,130,88,133,135,136,118,136,100,147,144,115,166,161,66,79,68,56,64,55,57,63,53,66,72,48,40,61,65,57,54,47,55,57,54,60,57,52,43,52,65,59,52,58,57,60,62,71,64,88,80,80,99,62,44,45,44,51,50,33,40,40,35,39,42,27,32,50,38,32,42,36,38,39,23,31,44,44,31,34,27,34,30,24,28,44,30,34,30,38,35,36,28,22,2,0,0,0,0
"sci",2015-340T22:30,"1/1828136027:156",5.027112681832148E+08,5.027148681832158E+08,-1,-1,-1,-1,-1,-1,-1,-1,2015-340T22:00,2015-340T23:00,2015,340.9375,2.832,-0.905,18.882,0,0,0,0,0,0,0,6,104,107,111,113,93,89,100,113,98,105,108,104,129,115,88,137,122,62,65,48,72,76,59,65,51,60,53,59,35,32,55,59,61,41,40,56,53,52,55,53,64,80,66,59,58,86,60,72,79,84,68,97,105,103,113,136,80,53,50,60,59,64,46,43,62,39,56,69,58,59,59,59,60,68,57,55,52,60,60,49,57,57,59,52,47,54,61,50,40,48,53,65,49,55,63,49,50,5,0,0,0,0
"sci",2015-340T23:30,"1/1828139627:161",5.027148681832158E+08,5.027184681832169E+08,-1,-1,-1,-1,-1,-1,-1,-1,2015-340T23:00,2015-341T00:00,2015,340.9792,3.285,-1.193,20.225,0,0,0,0,0,0,0,3,83,90,126,93,75,81,107,80,81,103,69,94,112,80,99,135,96,73,78,73,62,74,51,59,61,55,62,42,30,38,45,47,55,49,43,42,48,40,54,49,44,59,65,44,57,59,49,72,55,51,62,80,66,83,83,92,69,39,42,53,52,44,35,42,43,51,44,65,45,34,59,44,42,60,36,52,58,42,45,47,31,52,45,32,39,32,38,36,31,32,32,30,39,49,50,25,36,4,0,0,0,0
"sci",2015-341T00:30,"1/1828143227:167",5.027184681832169E+08,5.027220681832179E+08,-1,-1,-1,-1,-1,-1,-1,-1,2015-341T00:00,2015-341T01:00,2015,341.0208,3.831,-1.313,21.213,0,0,0,0,0,0,0,3,23,47,45,34,24,32,33,31,32,30,28,45,43,48,38,39,43,43,41,38,41,45,49,44,47,31,44,46,42,34,50,27,60,38,56,48,52,70,55,64,55,74,67,69,65,63,81,83,77,95,86,84,99,119,86,113,61,64,71,60,70,45,55,59,49,62,57,70,51,50,58,59,75,59,61,54,53,59,66,58,65,65,78,54,58,55,78,63,60,68,59,67,60,80,51,59,58,4,0,0,0,0
"sci",2015-341T01:30,"1/1828146827:173",5.027220681832179E+08,5.027256681832190E+08,-1,-1,-1,-1,-1,-1,-1,-1,2015-341T01:00,2015-341T02:00,2015,341.0625,4.413,-1.345,21.948,0,0,0,0,0,0,0,0,4,11,13,12,8,18,20,8,13,5,4,6,8,14,10,18,11,15,18,9,10,17,15,13,9,14,10,7,9,11,13,13,11,13,13,13,15,18,10,17,26,24,23,16,16,13,19,15,14,24,26,26,25,38,28,19,17,14,16,17,14,15,16,16,24,15,25,16,8,6,15,15,19,16,19,18,13,23,18,14,19,14,15,18,12,31,20,17,17,13,26,9,12,9,14,12,18,0,0,0,0,0
"sci",2015-341T02:30,"1/1828150427:179",5.027256681832190E+08,5.027292681832201E+08,-1,-1,-1,-1,-1,-1,-1,-1,2015-341T02:00,2015-341T03:00,2015,341.1042,5.004,-1.336,22.510,0,0,0,0,0,0,0,0,3,4,5,8,6,15,14,22,18,16,10,5,0,9,6,7,2,6,6,5,7,6,2,7,8,5,3,3,8,1,3,5,3,2,3,5,2,8,2,7,5,3,6,6,5,2,7,5,7,12,6,7,5,9,4,10,11,5,5,5,5,5,8,12,13,12,9,7,5,6,6,6,8,5,9,3,5,7,5,2,8,9,1,2,4,2,8,3,4,4,3,2,1,3,6,4,1,0,0,0,0,0
"sci",2015-341T03:30,"1/1828154027:185",5.027292681832201E+08,5.027328681832212E+08,-1,-1,-1,-1,-1,-1,-1,-1,2015-341T03:00,2015-341T04:00,2015,341.1458,5.590,-1.309,22.954,0,0,0,0,0,0,0,0,5,6,6,11,21,53,87,108,118,42,22,15,5,3,7,2,4,2,7,3,3,12,20,12,17,14,3,3,6,6,2,2,3,2,1,5,5,3,8,5,4,6,6,1,3,6,4,5,5,12,10,20,18,18,10,10,8,8,11,16,25,23,28,75,86,96,65,60,54,32,23,13,17,12,15,10,14,7,11,13,8,16,11,11,5,8,6,6,6,10,5,6,3,4,4,7,4,0,0,0,0,0
"sci",2015-341T04:30,"1/1828157627:191",5.027328681832212E+08,5.027364681832222E+08,-1,-1,-1,-1,-1,-1,-1,-1,2015-341T04:00,2015-341T05:00,2015,341.1875,6.164,-1.274,23.314,0,0,0,0,0,0,0,0,5,13,12,14,89,247,355,434,377,162,76,40,14,7,15,12,13,13,7,10,11,27,61,97,63,28,20,13,9,8,11,9,7,9,8,13,28,15,8,10,10,3,8,7,11,8,15,13,13,15,37,53,31,37,16,33,24,22,17,55,50,78,115,227,314,335,270,213,164,102,73,62,67,24,27,29,18,20,31,18,30,22,15,23,19,9,8,4,11,11,7,5,6,4,9,2,2,0,0,0,0,0
"sci",2015-341T05:30,"1/1828161227:197",5.027364681832222E+08,5.027400681832232E+08,-1,-1,-1,-1,-1,-1,-1,-1,2015-341T05:00,2015-341T06:00,2015,341.2292,6.725,-1.236,23.613,0,0,0,0,0,0,0,0,3,13,32,43,131,442,563,736,675,265,96,58,27,18,23,23,13,16,10,16,25,60,140,186,105,64,27,26,10,5,15,6,10,16,8,20,30,25,21,14,14,12,15,15,12,12,8,14,17,13,56,71,42,40,47,32,37,28,32,40,64,94,126,240,382,352,313,244,156,99,78,50,48,35,26,26,11,21,24,16,26,22,16,10,12,6,5,2,7,7,4,3,3,6,3,2,2,0,0,0,0,0
"sci",2015-341T06:30,"1/1828164827:203",5.027400681832232E+08,5.027436681832243E+08,-1,-1,-1,-1,-1,-1,-1,-1,2015-341T06:00,2015-341T07:00,2015,341.2708,7.271,-1.198,23.867,0,0,0,0,0,0,0,2,9,26,42,58,177,551,736,829,643,262,114,72,29,29,20,21,18,12,14,17,35,71,122,198,128,61,19,12,18,12,14,13,10,16,15,17,37,19,13,12,12,11,5,13,14,12,22,13,12,22,43,73,48,30,21,25,29,33,35,43,34,90,114,201,330,393,277,257,133,104,76,63,49,30,30,17,21,20,12,17,14,12,13,12,8,4,8,8,9,5,5,2,2,3,3,5,0,0,0,0,0,0
"sci",2015-341T07:30,"1/1828168427:208",5.027436681832243E+08,5.027472681832254E+08,-1,-1,-1,-1,-1,-1,-1,-1,2015-341T07:00,2015-341T08:00,2015,341.3125,7.801,-1.161,0.086,0,0,0,0,0,0,0,0,17,16,35,98,217,590,678,815,590,230,115,57,38,25,27,20,22,26,21,19,39,61,149,204,109,43,27,16,8,15,17,10,8,12,8,24,38,29,8,12,12,8,13,10,9,10,14,8,15,22,49,70,58,25,17,22,22,19,32,33,49,81,92,213,403,315,298,186,134,79,52,41,36,23,19,16,15,23,14,17,12,18,9,16,8,6,4,1,3,3,4,4,4,2,1,3,1,0,0,0,0,0
"sci",2015-341T08:30,"1/1828172027:214",5.027472681832254E+08,5.027508681832265E+08,-1,-1,-1,-1,-1,-1,-1,-1,2015-341T08:00,2015-341T09:00,2015,341.3542,8.317,-1.125,0.277,0,0,0,0,0,0,0,0,12,28,56,100,200,595,696,746,559,201,93,66,33,21,23,18,19,24,17,36,44,101,160,208,127,34,26,17,10,11,13,9,11,17,13,22,50,14,14,8,6,6,15,9,8,9,10,8,12,26,48,66,36,26,19,17,17,15,17,30,39,63,86,221,462,353,287,241,112,74,71,43,36,28,20,33,17,15,10,13,15,7,10,6,5,6,5,3,2,5,7,7,1,0,4,1,5,0,0,0,0,0
"sci",2015-341T09:30,"1/1828175627:220",5.027508681832265E+08,5.027544681832275E+08,-1,-1,-1,-1,-1,-1,-1,-1,2015-341T09:00,2015-341T10:00,2015,341.3958,8.819,-1.091,0.446,0,0,0,0,0,0,0,2,25,27,60,103,199,584,657,702,471,145,93,67,45,39,21,25,32,14,25,52,57,113,205,197,101,46,29,31,13,16,14,10,12,28,22,41,54,32,10,7,10,10,14,5,7,10,9,7,10,31,52,60,37,20,18,26,15,15,26,31,41,52,87,233,462,351,297,237,130,100,59,35,37,23,17,17,15,16,7,27,12,16,10,6,3,3,5,2,3,3,2,3,5,4,5,0,2,0,0,0,0,0
"sci",2015-341T10:30,"1/1828179227:226",5.027544681832275E+08,5.027580681832286E+08,-1,-1,-1,-1,-1,-1,-1,-1,2015-341T10:00,2015-341T11:00,2015,341.4375,9.307,-1.059,0.597,0,0,0,0,0,0,0,1,19,28,68,111,248,582,684,704,483,178,94,45,43,25,32,28,34,20,40,52,98,106,200,235,121,69,20,28,16,16,12,16,11,28,18,41,49,22,13,7,11,9,5,17,4,6,7,4,9,23,58,65,23,20,17,20,11,19,33,31,32,52,98,215,420,366,341,246,135,88,59,41,32,27,33,20,25,14,17,25,21,13,9,6,4,4,4,3,6,4,8,2,3,5,4,3,1,0,0,0,0,0
"sci",2015-341T11:30,"1/1828182827:232",5.027580681832286E+08,5.027616681832297E+08,-1,-1,-1,-1,-1,-1,-1,-1,2015-341T11:00,2015-341T12:00,2015,341.4792,9.783,-1.029,0.733,0,0,0,0,0,0,0,2,15,24,75,116,207,556,624,722,541,167,108,47,43,21,25,33,26,27,23,54,84,112,181,213,121,58,31,17,10,17,14,9,11,15,20,37,48,27,10,10,11,9,7,15,11,11,10,5,13,16,46,53,30,16,15,21,16,19,28,34,36,44,86,241,466,340,285,237,118,82,71,35,26,21,19,24,22,13,14,15,16,12,7,9,8,2,2,2,4,4,2,2,6,2,2,2,0,0,0,0,0,0
"sci",2015-341T12:30,"1/1828186427:238",5.027616681832297E+08,5.027652681832307E+08,-1,-1,-1,-1,-1,-1,-1,-1,2015-341T12:00,2015-341T13:00,2015,341.5208,10.246,-1.000,0.857,0,0,0,0,0,0,0,0,11,32,50,132,191,638,668,755,552,180,93,42,21,25,21,23,29,20,17,53,75,117,172,210,87,43,21,17,12,13,11,8,16,28,21,30,39,20,9,5,7,8,4,3,9,9,9,11,8,18,51,39,22,21,16,13,8,12,24,26,35,43,80,198,503,358,324,270,108,65,56,41,22,20,29,25,17,15,16,26,21,4,11,8,8,5,4,3,2,4,5,4,1,4,2,1,4,0,0,0,0,0
"sci",2015-341T13:30,"1/1828190027:244",5.027652681832307E+08,5.027688681832318E+08,-1,-1,-1,-1,-1,-1,-1,-1,2015-341T13:00,2015-341T14:00,2015,341.5625,10.698,-0.973,0.970,0,0,0,0,0,0,0,4,15,26,35,123,191,630,664,830,595,207,84,46,38,30,34,29,27,17,18,37,56,95,152,167,90,41,30,18,9,7,11,11,11,24,19,40,29,22,5,5,6,4,6,8,10,8,8,6,14,15,38,45,18,24,13,16,8,16,16,31,38,64,78,209,404,406,300,235,130,105,49,48,32,18,25,16,14,18,18,26,15,7,12,8,5,3,2,4,3,5,2,1,2,4,2,1,3,0,0,0,0,0
"sci",2015-341T14:30,"1/1828193627:250",5.027688681832318E+08,5.027724681832328E+08,-1,-1,-1,-1,-1,-1,-1,-1,2015-341T14:00,2015-341T15:00,2015,341.6042,11.138,-0.947,1.075,0,0,0,0,0,0,0,1,17,23,50,96,211,743,821,997,705,306,103,76,46,32,36,23,28,22,12,35,47,74,119,164,105,45,26,15,11,8,11,8,8,16,17,20,41,17,3,9,5,11,5,4,3,5,5,8,8,12,35,32,20,8,6,8,11,13,19,22,23,35,75,175,371,278,257,218,128,77,59,37,30,27,26,18,10,14,10,19,28,12,10,4,8,7,5,7,2,4,4,5,2,3,2,1,2,0,0,0,0,0
"sci",2015-341T15:30,"1/1828197227:255",5.027724681832328E+08,5.027760681832339E+08,-1,-1,-1,-1,-1,-1,-1,-1,2015-341T15:00,2015-341T16:00,2015,341.6458,11.569,-0.923,1.171,0,0,0,0,0,0,0,2,10,25,33,66,194,731,811,1024,857,295,110,66,37,34,27,15,29,22,26,32,57,72,131,164,102,34,28,10,10,14,9,9,10,19,20,29,35,18,8,5,9,3,8,1,6,5,4,5,7,5,19,23,21,7,11,10,10,7,14,9,19,24,59,132,306,261,226,185,102,69,43,32,26,17,15,12,14,9,16,17,6,13,10,9,4,2,3,3,3,2,1,2,3,2,6,1,2,0,0,0,0,0
"sci",2015-341T16:30,"1/1828200828:5",5.027760681832339E+08,5.027796681832350E+08,-1,-1,-1,-1,-1,-1,-1,-1,2015-341T16:00,2015-341T17:00,2015,341.6875,11.989,-0.899,1.260,0,0,0,0,0,0,0,1,22,23,51,70,230,710,851,1239,1010,359,134,71,36,33,26,20,28,22,11,38,64,113,183,232,147,65,25,22,8,16,15,13,13,21,17,31,37,26,7,2,6,9,7,3,2,4,7,5,7,11,15,24,9,10,5,7,4,14,15,20,22,40,73,159,350,323,277,233,148,88,61,50,31,23,18,16,14,9,21,33,14,18,12,10,6,7,7,9,2,5,4,4,6,4,0,1,1,0,0,0,0,0
"sci",2015-341T17:30,"1/1828204428:11",5.027796681832350E+08,5.027832681832361E+08,-1,-1,-1,-1,-1,-1,-1,-1,2015-341T17:00,2015-341T18:00,2015,341.7292,12.399,-0.877,1.344,0,0,0,0,0,0,0,1,9,23,49,62,209,740,822,1018,738,275,116,50,42,37,35,28,16,17,15,30,57,118,178,220,113,54,24,16,16,10,14,10,6,29,17,34,36,21,16,5,3,7,11,5,10,5,3,6,6,12,22,23,24,15,7,17,13,14,25,35,37,49,80,245,461,461,376,314,178,119,79,57,47,17,24,26,22,22,26,29,29,20,17,9,7,6,11,3,6,3,6,5,4,3,3,2,3,0,0,0,0,0
"sci",2015-341T18:30,"1/1828208028:17",5.027832681832361E+08,5.027868681832371E+08,-1,-1,-1,-1,-1,-1,-1,-1,2015-341T18:00,2015-341T19:00,2015,341.7708,12.801,-0.856,1.422,0,0,0,0,0,0,0,1,14,18,42,58,236,709,886,1250,1029,383,141,69,54,50,37,34,18,27,19,33,69,114,235,303,150,42,34,18,21,12,15,9,8,18,22,39,37,17,10,10,4,4,5,6,4,7,5,10,4,11,19,18,11,20,14,13,18,24,26,26,35,48,106,219,475,389,395,297,184,91,82,68,50,35,33,26,22,19,22,28,25,18,15,8,9,10,8,8,6,3,6,7,5,8,2,4,3,0,0,0,0,0
"sci",2015-341T19:30,"1/1828211628:23",5.027868681832371E+08,5.027904681832382E+08,-1,-1,-1,-1,-1,-1,-1,-1,2015-341T19:00,2015-341T20:00,2015,341.8125,13.194,-0.836,1.495,0,0,0,0,0,0,0,0,17,19,31,49,193,630,806,1079,1001,339,121,63,48,36,23,19,19,23,18,33,57,109,191,216,127,50,30,17,18,10,7,6,5,24,17,31,38,24,6,7,3,7,7,4,1,6,2,6,2,8,15,14,11,9,6,6,7,7,10,20,17,33,70,146,301,279,242,167,135,70,37,40,26,13,12,10,10,11,9,16,12,12,11,5,5,4,5,5,0,1,3,3,2,4,3,1,2,0,0,0,0,0
"sci",2015-341T20:30,"1/1828215228:29",5.027904681832382E+08,5.027940681832393E+08,-1,-1,-1,-1,-1,-1,-1,-1,2015-341T20:00,2015-341T21:00,2015,341.8542,13.579,-0.817,1.564,0,0,0,0,0,0,0,0,13,14,29,41,163,515,655,882,721,283,101,49,31,28,21,25,16,12,17,29,42,80,148,146,102,50,18,12,16,4,7,5,14,7,16,26,34,18,4,6,8,0,3,1,5,5,1,0,7,5,10,16,8,6,5,8,4,7,15,11,21,23,46,78,205,188,125,125,81,47,28,23,25,10,13,8,6,13,12,8,11,10,6,8,8,5,2,4,0,5,3,0,1,2,2,1,0,0,0,0,0,0
"sci",2015-341T21:30,"1/1828218828:35",5.027940681832393E+08,5.027976681832404E+08,-1,-1,-1,-1,-1,-1,-1,-1,2015-341T21:00,2015-341T22:00,2015,341.8958,13.955,-0.798,1.630,0,0,0,0,0,0,0,1,8,13,20,32,138,344,548,708,581,228,73,44,24,21,20,15,15,12,9,21,34,71,149,130,81,37,12,11,7,7,8,3,0,4,15,11,38,16,11,3,4,3,1,4,2,2,2,5,2,4,8,10,2,3,4,6,6,5,7,14,8,18,30,56,127,124,106,95,46,37,28,15,15,5,11,5,6,7,6,5,5,7,4,6,3,3,2,1,2,4,0,3,2,0,1,1,1,0,0,0,0,0
"sci",2015-341T22:30,"1/1828222428:41",5.027976681832404E+08,5.028012681832414E+08,-1,-1,-1,-1,-1,-1,-1,-1,2015-341T22:00,2015-341T23:00,2015,341.9375,14.324,-0.781,1.692,0,0,0,0,0,0,0,0,6,13,26,21,66,227,377,570,496,194,69,39,25,19,15,14,13,11,9,10,30,48,80,91,75,33,15,13,4,4,5,8,5,9,5,21,25,12,9,5,2,5,3,0,1,4,3,7,3,2,4,4,7,5,6,5,4,13,4,8,13,21,21,48,95,81,85,81,35,32,17,14,7,7,8,8,12,6,2,4,6,8,5,4,4,5,1,5,4,0,1,3,2,1,1,1,0,0,0,0,0,0